Flag for Norway

Past Weather in Tananger, Norway — Yesterday and Last 2 Weeks

Now
55 °F

Passing clouds.


Feels Like: 53 °F
Forecast: 57 / 53 °F
Wind: 9 mph from Northwest

Location: Stavanger / Sola
Current Time: Sep 19, 2020 at 8:41:01 pm
Latest Report: Sep 19, 2020 at 7:50 pm
Visibility: N/A
Pressure30.24 "Hg
Humidity: 88%
Dew Point: 52 °F
Location of TanangerLocation

Past Weather in Tananger — Graph

°F

Tananger Temperature Yesterday

Maximum temperature yesterday: 59 °F (at 12:20 pm)
Minimum temperature yesterday: 46 °F (at 1:50 am)
Average temperature yesterday: 55 °F

High & Low Weather Summary for the Past Weeks

 TemperatureHumidityPressure
High64 °F (Sep 15, 2:20 pm)100% (Sep 7, 9:50 pm)30.48 "Hg (Sep 7, 9:50 pm)
Low45 °F (Sep 17, 1:20 am)48% (Sep 17, 11:50 am)29.59 "Hg (Sep 12, 6:50 am)
Average56 °F82%29.99 "Hg
* Reported Sep 4 7:20 pm — Sep 19 7:20 pm, Tananger. Weather by CustomWeather, © 2020

Note: Actual official high and low records may vary slightly from our data, if they occured in-between our weather recording intervals... More about our weather records

Tananger Weather History for the Previous 24 Hours

Scroll right to see more
 ConditionsComfort  
Time TempWeatherWind HumidityBarometerVisibility
7:20 pm
Sat, Sep 19
57 °FPassing clouds.10 mph82%30.24 "HgN/A
6:50 pm57 °FPassing clouds.12 mph82%30.24 "HgN/A
6:20 pm59 °FScattered clouds.12 mph77%30.24 "HgN/A
5:50 pm59 °FPartly sunny.7 mph77%30.24 "HgN/A
5:20 pm59 °FPartly sunny.9 mph77%30.27 "HgN/A
4:50 pm59 °FPartly sunny.9 mph77%30.27 "HgN/A
4:20 pm59 °FPartly sunny.8 mph77%30.27 "HgN/A
3:50 pm59 °FPartly sunny.10 mph77%30.27 "HgN/A
3:20 pm59 °FPartly sunny.12 mph77%30.30 "HgN/A
2:50 pm59 °FPartly sunny.9 mph77%30.30 "HgN/A
1:50 pm59 °FPartly sunny.9 mph77%30.30 "HgN/A
1:20 pm57 °FPartly sunny.9 mph82%30.30 "HgN/A
12:50 pm57 °FPartly sunny.12 mph82%30.30 "HgN/A
12:20 pm57 °FPartly sunny.12 mph82%30.30 "HgN/A
11:50 am57 °FPartly sunny.10 mph82%30.30 "HgN/A
11:20 am57 °FPartly sunny.12 mph88%30.30 "HgN/A
10:50 am55 °FPartly sunny.12 mph88%30.30 "HgN/A
10:20 am55 °FPartly sunny.12 mph88%30.30 "HgN/A
9:50 am55 °FPartly sunny.12 mph88%30.33 "HgN/A
9:20 am55 °FPartly sunny.9 mph94%30.33 "HgN/A
8:50 am55 °FPartly sunny.12 mph88%30.33 "HgN/A
8:20 am55 °FLow clouds.10 mph88%30.33 "HgN/A
7:50 am55 °FPartly sunny.13 mph88%30.33 "HgN/A
7:20 am55 °FPartly sunny.12 mph94%30.33 "HgN/A
6:50 am55 °FPassing clouds.9 mph88%30.33 "HgN/A
6:20 am55 °FPassing clouds.10 mph88%30.33 "HgN/A
5:50 am55 °FPassing clouds.10 mph94%30.33 "HgN/A
5:20 am55 °FPassing clouds.9 mph94%30.33 "HgN/A
4:50 am55 °FPassing clouds.8 mph94%30.33 "HgN/A
4:20 am55 °FPassing clouds.8 mph94%30.33 "Hg6 mi
3:20 am55 °FPassing clouds.9 mph94%30.33 "Hg6 mi
2:50 am55 °FPartly cloudy.9 mph100%30.33 "Hg6 mi
2:20 am55 °FPartly cloudy.7 mph100%30.33 "Hg6 mi
1:50 am57 °FFog.5 mph94%30.36 "Hg3 mi
1:20 am57 °FFog.5 mph94%30.36 "Hg3 mi
12:50 am57 °FFog.3 mph94%30.36 "Hg3 mi
12:20 am57 °FFog.5 mph94%30.36 "Hg3 mi
11:50 pm
Fri, Sep 18
57 °FPassing clouds.3 mph94%30.36 "HgN/A
11:20 pm57 °FPassing clouds.5 mph88%30.36 "HgN/A
10:50 pm57 °FPassing clouds.5 mph94%30.36 "HgN/A
10:20 pm57 °FPassing clouds.No wind88%30.36 "HgN/A
9:50 pm57 °FPassing clouds.2 mph94%30.36 "HgN/A
9:20 pm57 °FPassing clouds.2 mph94%30.36 "HgN/A
8:50 pm57 °FPartly cloudy.No wind94%30.36 "HgN/A
8:20 pm57 °FPassing clouds.2 mph94%30.36 "Hg6 mi
Weather by CustomWeather, © 2020

See weather overview